Regional Weather Roundup
Issued by NWS Goodland, KS

Home | Current Version | Previous Version | Text Only | Print | Product List | Glossary On
Versions: 1 2 3 4 5 6 7 8 9 10 11 12 13 14 15 16 17 18 19 20 21 22 23 24 25 26 27 28 29 30 31 32 33 34 35 36 37 38 39 40 41 42 43 44 45 46 47 48 49 50
000
ASUS43 KGLD 181608
RWRGLD

GOODLAND FORECAST AREA HOURLY WEATHER ROUNDUP
NATIONAL WEATHER SERVICE GOODLAND KS
900 AM MST WED JAN 18 2017

...OFFICIAL OBSERVATIONS...

CITY           SKY/WX    TMP DP  RH WIND       PRES   REMARKS
GOODLAND KS    CLOUDY    30  26  85 W7        29.93S
HILL CITY KS   CLOUDY    38  34  85 SW6       29.98F
IMPERIAL NEB   CLOUDY    27  21  78 W6        29.92F
MCCOOK NEB     MOSUNNY   33  30  88 W5        29.94F
AKRON CO       CLOUDY    29  19  66 W15       29.91F WCI  18
BURLINGTON CO  CLOUDY    30  25  81 NW6       29.93R
LIMON CO       CLOUDY    28  22  78 W6        29.93S
$$

...UNOFFICIAL OBSERVATIONS...

CITY           SKY/WX    TMP DP  RH WIND       PRES   REMARKS
LENORA KS        N/A     36  32  85 SW7         N/A
SHARON SPRINGS   N/A     33  31  94 S7          N/A
TRENTON NEB      N/A     30  32 100 NW5         N/A
KIT CARSON CO    N/A     25  22  89 CALM        N/A
$$



USA.gov is the U.S. government's official web portal to all federal, state and local government web resources and services.